GOES 15

Last updated on Tue Sep 16 2025 00:02:34 GMT+0000 (Coordinated Universal Time)

1 36411U 10008A 25258.61801448 .00000021 00000+0 00000+0 0 9999 2 36411 0.5794 85.4151 0005164 137.3820 55.8694 1.00270716 56884
UTC large
Height (km)
Speed (km/s)
/
Latitude / Longitude
Inclination (degrees)
Orbital Period (minutes)
Azimuth
Elevation
Range (km)
Doppler Factor

Next 0 passes for location: London (51.5072 / 0.1276)

Sorry there are no passes over London.